When you browse on this site, cookies collect data to enhance your experience and personalize the content and advertising you see.
Visit our Privacy Policy to learn more. By continuing to use the site, you agree to this use of cookies and data.
  • In Österreich
  • Länderverzeichnis
  • Für 7 Tage
  • Wassertemperatur
  • Satellitenkarten
  • Wetterkarte
  • News
  • Widgets
  • user-avatar
    Anmelden

    Stündliche Wetter Galyy Bor

    Heute, 21 Juli, Sonntag

    Zeit Temperatur Niederschläge Wind Luftdruck Luftfeuchtigkeit
    00:00 +16°C° 0.3 mm 0 m/S 750 mmHg 83%
    01:00 +18°C° 0.3 mm 1 m/S 751 mmHg 84%
    02:00 +16°C° 0.3 mm 1 m/S 751 mmHg 85%
    03:00 +16°C° 0 mm 1 m/S 751 mmHg 85%
    04:00 +15°C° 0 mm 0 m/S 751 mmHg 86%
    05:00 +15°C° 0 mm 0 m/S 751 mmHg 86%
    06:00 +19°C° 0 mm 1 m/S 751 mmHg 83%
    07:00 +21°C° 0 mm 1 m/S 751 mmHg 80%
    08:00 +22°C° 0 mm 1 m/S 751 mmHg 77%
    09:00 +24°C° 0 mm 1 m/S 751 mmHg 72%
    10:00 +25°C° 0 mm 1 m/S 751 mmHg 66%
    11:00 +26°C° 0 mm 2 m/S 751 mmHg 60%
    12:00 +27°C° 0 mm 2 m/S 751 mmHg 57%
    13:00 +28°C° 0 mm 2 m/S 750 mmHg 54%
    14:00 +28°C° 0 mm 2 m/S 750 mmHg 51%
    15:00 +28°C° 0 mm 1 m/S 750 mmHg 52%
    16:00 +28°C° 0 mm 1 m/S 750 mmHg 53%
    17:00 +28°C° 0 mm 1 m/S 750 mmHg 54%
    18:00 +26°C° 0 mm 1 m/S 750 mmHg 60%
    19:00 +25°C° 0 mm 1 m/S 749 mmHg 65%
    20:00 +23°C° 0 mm 1 m/S 749 mmHg 71%
    21:00 +22°C° 0.6 mm 1 m/S 749 mmHg 76%
    22:00 +21°C° 0.6 mm 1 m/S 749 mmHg 80%
    23:00 +19°C° 0.6 mm 0 m/S 749 mmHg 84%

    Morgen, 22 Juli, Montag

    Zeit Temperatur Niederschläge Wind Luftdruck Luftfeuchtigkeit
    00:00 +18°C° 0.9 mm 0 m/S 749 mmHg 87%
    01:00 +18°C° 0.9 mm 0 m/S 749 mmHg 89%
    02:00 +17°C° 0.9 mm 0 m/S 748 mmHg 92%
    03:00 +19°C° 0.8 mm 1 m/S 748 mmHg 93%
    04:00 +19°C° 0.8 mm 1 m/S 748 mmHg 95%
    05:00 +19°C° 0.8 mm 1 m/S 748 mmHg 96%
    06:00 +19°C° 0.2 mm 2 m/S 748 mmHg 95%
    07:00 +19°C° 0.2 mm 3 m/S 749 mmHg 94%
    08:00 +20°C° 0.2 mm 3 m/S 749 mmHg 93%
    09:00 +20°C° 0 mm 4 m/S 749 mmHg 91%
    10:00 +20°C° 0 mm 4 m/S 749 mmHg 89%
    11:00 +20°C° 0 mm 5 m/S 749 mmHg 87%
    12:00 +21°C° 0 mm 5 m/S 749 mmHg 82%
    13:00 +22°C° 0 mm 5 m/S 749 mmHg 76%
    14:00 +22°C° 0 mm 5 m/S 749 mmHg 71%
    15:00 +22°C° 0.1 mm 5 m/S 749 mmHg 71%
    16:00 +22°C° 0.1 mm 5 m/S 749 mmHg 71%
    17:00 +22°C° 0.1 mm 5 m/S 749 mmHg 70%
    18:00 +21°C° 0 mm 5 m/S 749 mmHg 76%
    19:00 +20°C° 0 mm 4 m/S 749 mmHg 81%
    20:00 +19°C° 0 mm 4 m/S 749 mmHg 87%
    21:00 +18°C° 0 mm 4 m/S 749 mmHg 89%
    22:00 +17°C° 0 mm 4 m/S 749 mmHg 91%
    23:00 +16°C° 0 mm 3 m/S 750 mmHg 93%

    übermorgen, 23 Juli, Dienstag

    Zeit Temperatur Niederschläge Wind Luftdruck Luftfeuchtigkeit
    00:00 +14°C° 0 mm 4 m/S 750 mmHg 94%
    01:00 +14°C° 0 mm 4 m/S 750 mmHg 95%
    02:00 +13°C° 0 mm 4 m/S 749 mmHg 95%
    03:00 +13°C° 0 mm 4 m/S 750 mmHg 94%
    04:00 +14°C° 0 mm 4 m/S 750 mmHg 92%
    05:00 +14°C° 0 mm 4 m/S 750 mmHg 90%
    06:00 +14°C° 0 mm 4 m/S 750 mmHg 89%
    07:00 +15°C° 0 mm 4 m/S 749 mmHg 88%
    08:00 +15°C° 0 mm 4 m/S 749 mmHg 88%
    09:00 +17°C° 0 mm 4 m/S 749 mmHg 85%
    10:00 +18°C° 0 mm 4 m/S 750 mmHg 82%
    11:00 +19°C° 0 mm 4 m/S 750 mmHg 79%
    12:00 +19°C° 0.1 mm 4 m/S 749 mmHg 77%
    13:00 +20°C° 0.1 mm 4 m/S 749 mmHg 76%
    14:00 +21°C° 0.1 mm 4 m/S 749 mmHg 74%
    15:00 +20°C° 0.2 mm 3 m/S 749 mmHg 77%
    16:00 +20°C° 0.2 mm 3 m/S 749 mmHg 80%
    17:00 +20°C° 0.2 mm 3 m/S 749 mmHg 83%
    18:00 +19°C° 0.1 mm 2 m/S 748 mmHg 86%
    19:00 +19°C° 0.1 mm 2 m/S 748 mmHg 90%
    20:00 +18°C° 0.1 mm 2 m/S 748 mmHg 93%
    21:00 +17°C° 0 mm 2 m/S 749 mmHg 94%
    22:00 +17°C° 0 mm 2 m/S 749 mmHg 95%
    23:00 +16°C° 0 mm 2 m/S 749 mmHg 96%

    24 Juli, Mittwoch

    Zeit Temperatur Niederschläge Wind Luftdruck Luftfeuchtigkeit
    00:00 +16°C° 0 mm 2 m/S 749 mmHg 96%
    01:00 +16°C° 0 mm 2 m/S 749 mmHg 95%
    02:00 +15°C° 0 mm 2 m/S 749 mmHg 95%
    03:00 +15°C° 0 mm 2 m/S 749 mmHg 96%
    04:00 +15°C° 0 mm 2 m/S 749 mmHg 96%
    05:00 +15°C° 0 mm 2 m/S 749 mmHg 96%
    06:00 +16°C° 0 mm 2 m/S 750 mmHg 92%
    07:00 +18°C° 0 mm 3 m/S 750 mmHg 88%
    08:00 +20°C° 0 mm 3 m/S 750 mmHg 83%
    09:00 +21°C° 0 mm 3 m/S 750 mmHg 76%
    10:00 +24°C° 0 mm 3 m/S 750 mmHg 69%
    11:00 +26°C° 0 mm 3 m/S 750 mmHg 61%
    12:00 +26°C° 0 mm 4 m/S 750 mmHg 59%
    13:00 +27°C° 0 mm 4 m/S 750 mmHg 58%
    14:00 +27°C° 0 mm 4 m/S 750 mmHg 56%
    15:00 +27°C° 0 mm 4 m/S 750 mmHg 58%
    16:00 +27°C° 0 mm 4 m/S 750 mmHg 60%
    17:00 +26°C° 0 mm 3 m/S 750 mmHg 62%
    18:00 +25°C° 0 mm 3 m/S 750 mmHg 69%
    19:00 +22°C° 0 mm 3 m/S 750 mmHg 76%
    20:00 +20°C° 0 mm 2 m/S 751 mmHg 82%
    21:00 +19°C° 0 mm 2 m/S 751 mmHg 84%
    22:00 +18°C° 0 mm 2 m/S 751 mmHg 86%
    23:00 +17°C° 0 mm 2 m/S 751 mmHg 88%

    25 Juli, Donnerstag

    Zeit Temperatur Niederschläge Wind Luftdruck Luftfeuchtigkeit
    00:00 +17°C° 0 mm 2 m/S 751 mmHg 89%
    01:00 +16°C° 0 mm 2 m/S 751 mmHg 89%
    02:00 +16°C° 0 mm 2 m/S 751 mmHg 90%
    03:00 +16°C° 0 mm 2 m/S 752 mmHg 91%
    04:00 +16°C° 0 mm 2 m/S 752 mmHg 91%
    05:00 +16°C° 0 mm 2 m/S 752 mmHg 91%
    06:00 +17°C° 0 mm 2 m/S 752 mmHg 86%
    07:00 +19°C° 0 mm 2 m/S 752 mmHg 80%
    08:00 +21°C° 0 mm 2 m/S 752 mmHg 74%
    09:00 +23°C° 0 mm 2 m/S 752 mmHg 68%
    10:00 +25°C° 0 mm 3 m/S 752 mmHg 62%
    11:00 +26°C° 0 mm 3 m/S 752 mmHg 55%
    12:00 +27°C° 0 mm 3 m/S 752 mmHg 54%
    13:00 +27°C° 0 mm 3 m/S 752 mmHg 53%
    14:00 +28°C° 0 mm 3 m/S 752 mmHg 52%
    15:00 +27°C° 0 mm 3 m/S 752 mmHg 55%
    16:00 +27°C° 0 mm 3 m/S 752 mmHg 58%
    17:00 +27°C° 0 mm 3 m/S 752 mmHg 60%
    18:00 +25°C° 0 mm 2 m/S 752 mmHg 67%
    19:00 +24°C° 0 mm 2 m/S 752 mmHg 74%
    20:00 +21°C° 0 mm 2 m/S 752 mmHg 81%
    21:00 +20°C° 0 mm 2 m/S 752 mmHg 83%
    22:00 +19°C° 0 mm 2 m/S 752 mmHg 85%
    23:00 +19°C° 0 mm 2 m/S 752 mmHg 87%

    26 Juli, Freitag

    Zeit Temperatur Niederschläge Wind Luftdruck Luftfeuchtigkeit
    00:00 +18°C° 0 mm 2 m/S 752 mmHg 89%
    01:00 +18°C° 0 mm 2 m/S 752 mmHg 91%
    02:00 +17°C° 0 mm 2 m/S 752 mmHg 92%
    03:00 +17°C° 0 mm 2 m/S 752 mmHg 93%
    04:00 +17°C° 0 mm 2 m/S 752 mmHg 94%
    05:00 +17°C° 0 mm 2 m/S 752 mmHg 95%
    06:00 +18°C° 0 mm 2 m/S 752 mmHg 89%
    07:00 +20°C° 0 mm 2 m/S 752 mmHg 83%
    08:00 +23°C° 0 mm 2 m/S 752 mmHg 77%
    09:00 +24°C° 0 mm 2 m/S 752 mmHg 70%
    10:00 +26°C° 0 mm 2 m/S 752 mmHg 62%
    11:00 +27°C° 0 mm 2 m/S 752 mmHg 54%
    12:00 +27°C° 0 mm 2 m/S 751 mmHg 53%
    13:00 +28°C° 0 mm 2 m/S 751 mmHg 52%
    14:00 +28°C° 0 mm 2 m/S 751 mmHg 51%
    15:00 +28°C° 0 mm 2 m/S 751 mmHg 54%
    16:00 +28°C° 0 mm 2 m/S 750 mmHg 57%
    17:00 +28°C° 0 mm 2 m/S 750 mmHg 60%
    18:00 +26°C° 0.1 mm 2 m/S 750 mmHg 68%
    19:00 +24°C° 0.1 mm 2 m/S 750 mmHg 76%
    20:00 +21°C° 0.1 mm 2 m/S 750 mmHg 85%
    21:00 +20°C° 0 mm 2 m/S 750 mmHg 88%
    22:00 +20°C° 0 mm 2 m/S 750 mmHg 90%
    23:00 +19°C° 0 mm 2 m/S 751 mmHg 93%
    Mehr zeigen